Regional Weather Roundup
Issued by NWS

Home | Current Version | Previous Version | Graphics & Text | Print | Product List | Glossary On
Versions: 1 2 3 4 5 6 7 8 9 10 11 12 13 14 15 16 17 18 19 20 21 22 23 24 25 26 27 28 29 30 31 32 33 34 35 36 37 38 39 40 41 42 43 44 45 46 47 48 49 50
000
ASUS43 KLOT 020321
RWRIL

ILLINOIS REGIONAL WEATHER ROUNDUP
NATIONAL WEATHER SERVICE CHICAGO/ROMEOVILLE IL
1000 PM CDT WED APR 01 2015

NOTE: "FAIR" INDICATES FEW OR NO CLOUDS BELOW 12,000 FEET WITH NO
SIGNIFICANT WEATHER AND/OR OBSTRUCTIONS TO VISIBILITY.

* THESE STATIONS ARE NOT UNDER NWS QUALITY CONTROL. THEY ALSO MAY NOT
  REPORT WEATHER SUCH AS PRECIPITATION OR FOG.

ILZ001-002-007-009-015-016-024-020400-
NORTHWEST ILLINOIS

CITY           SKY/WX    TMP DP  RH WIND       PRES   REMARKS
MOLINE         MOCLDY    64  37  36 S16G26    29.75F
STERLING*      PTCLDY    61  39  44 S8        29.78F
SAVANNA*       CLEAR     61  37  41 S13       29.76F
$$

ILZ003-004-008-010-011-017-018-020400-
NORTH CENTRAL ILLINOIS

CITY           SKY/WX    TMP DP  RH WIND       PRES   REMARKS
ROCKFORD       PTCLDY    59  40  49 S18       29.81F
FREEPORT*      CLEAR     54  40  58 S14       29.79F
ROCHELLE*      FAIR      57  41  54 S16       29.82F
DE KALB*       CLEAR     55  40  57 S15       29.84F
PERU*          MOCLDY    61  40  46 S21G26    29.84F
$$

ILZ005-006-012>014-019>023-020400-
NORTHEAST ILLINOIS

CITY           SKY/WX    TMP DP  RH WIND       PRES   REMARKS
CHICAGO-OHARE  PTCLDY    62  37  39 S20       29.86F
CHICAGO-MIDWAY PTCLDY    64  37  36 S17G24    29.88F
AURORA         CLEAR     60  38  43 S15       29.86F
LANSING*       CLEAR     57  36  44 S12       29.91F
JOLIET*        CLEAR     62  40  44 S12G18    29.88F
WAUKEGAN       CLEAR     62  38  40 S18       29.83F
DUPAGE AIRPORT CLEAR     60  39  45 S15       29.85F
KANKAKEE*      PTCLDY    59  39  47 S14       29.91F
WHEELING       CLEAR     62  37  39 S15       29.87F
MORRIS*        PTCLDY    58  40  51 S15       29.87F
ROMEOVILLE*    CLEAR     58  38  46 S16G22    29.87F
NORTHERLY ISL    N/A     62  35  36 S10         N/A
$$

LMZ740>746-020400-
SOUTHERN LAKE MICHIGAN

STATION/POSITION SKY/WX   TEMP    WIND        PRES    VSBY  WAVE
                          AIR SEA DIR/SP/G                  HT/PER
                          (F)     (DEG/KT/KT) (MB)    (MI)  (FT/S)
HARRISON CRIB              60     180/ 22/ 25   N/A
BURNHAM HARBOR             63     190/ 10/ 16   N/A
CALUMET HARBOR             64     170/ 12/ 18 1011.6S
BURNS HARBOR               62     180/ 10/ 15 1013.9S
MICHIGAN CITY              60     150/ 14/ 17   N/A
$$

ILZ025>027-034>036-040-047-049-050-058-095>099-020400-
WEST-CENTRAL ILLINOIS

CITY           SKY/WX    TMP DP  RH WIND       PRES   REMARKS
QUINCY         CLOUDY    65  48  54 S12G22    29.80F
GALESBURG*     CLOUDY    61  40  45 S10G16    29.79F
MACOMB*        CLOUDY    64  39  40 S16       29.82F
JACKSONVILLE*  CLOUDY    67  41  38 SE10G18   29.85S
PITTSFIELD*    LGT RAIN  65  42  42 S8        29.84F
$$

ILZ028>032-037-038-041>044-048-051>054-059>061-020400-
CENTRAL ILLINOIS

CITY           SKY/WX    TMP DP  RH WIND       PRES   REMARKS
PONTIAC        CLOUDY    60  42  50 S17       29.88F
BLOOMINGTON    CLOUDY    60  42  51 S22       29.89F
DECATUR        MOCLDY    60  40  47 S14       29.90F
PEORIA         CLOUDY    66  40  38 S20G29    29.84F
LACON*         CLOUDY    60  40  46 S13G21    29.83F
LINCOLN*       CLOUDY    59  43  54 SE12      29.86F
SPRINGFIELD    MOCLDY    65  41  41 SE23      29.85F
TAYLORVILLE    MOCLDY    59  41  51 SE15G21   29.88F
$$

ILZ033-039-045-046-055>057-062-063-020400-
EAST-CENTRAL ILLINOIS

CITY           SKY/WX    TMP DP  RH WIND       PRES   REMARKS
CHAMPAIGN      CLOUDY    56  41  57 SE12      29.92F
DANVILLE*      MOCLDY    56  38  52 SE9       29.92F
RANTOUL*       CLOUDY    56  41  57 S9        29.92F
MATTOON        MOCLDY    60  39  45 SE13      29.92F
PARIS*         CLOUDY    55  40  58 SE7       29.96F
$$

ILZ079-100>102-020400-
SOUTHWEST ILLINOIS

CITY           SKY/WX    TMP DP  RH WIND       PRES   REMARKS
ALTON          PTCLDY    64  34  32 S9        29.88S
BELLEVILLE     CLOUDY    64  42  45 SE8       29.86F
CAHOKIA*       CLOUDY    65  42  43 SE7       29.85F
SPARTA*        CLOUDY    63  41  44 SE5       29.90F
$$

ILZ064>066-069>071-074>076-080>082-084>086-088>090-092>094-020400-
SOUTH-CENTRAL ILLINOIS

CITY           SKY/WX    TMP DP  RH WIND       PRES   REMARKS
CARBONDALE     CLOUDY    66  37  34 SE9       29.91F
CAIRO*         CLOUDY    65  56  73 S12G21    29.94F
EFFINGHAM*     MOCLDY    62  34  35 SE10      29.94F
MARION         CLOUDY    68  37  32 S9        29.93F
MT. VERNON     MOCLDY    64  37  36 SE7       29.92F
CENTRALIA*     CLOUDY    63  38  39 SE10      29.90F
SALEM*         CLOUDY    65  38  35 SE8       29.92F
METROPOLIS*    CLOUDY    61  53  74 SE8       29.95F
$$

ILZ067-068-072-073-078-083-087-091-020400-
SOUTHEAST ILLINOIS

CITY           SKY/WX    TMP DP  RH WIND       PRES   REMARKS
LAWRENCEVILLE  MOCLDY    60  36  40 SE12      29.97F
FLORA*         MOCLDY    57  42  56 SE9       29.94F
FAIRFIELD*     PTCLDY    63  39  40 SE12      29.93F
HARRISBURG*    MOCLDY    61  43  51 SE9       29.96S
ROBINSON*      CLOUDY    58  36  43 SE9       29.97F
CARMI*         PTCLDY    60  34  37 SE12      29.95F
$$

ABBREVIATIONS USED IN REMARKS
   TC - TEMPERATURE IN CELSIUS
  WCI - WIND CHILL INDEX
   HX - HEAT INDEX
  VSB - VISIBILITY
$$



USA.gov is the U.S. government's official web portal to all federal, state and local government web resources and services.